星链-5741 (STARLINK-5741 )

导读 | 豆包AI

STARLINK-5741是美国SpaceX公司星链(Starlink)星座的成员卫星,于2023年2月12日发射入轨。它运行在约550公里高度的近地轨道,采用平板化设计与相控阵天线技术,是星链全球低轨卫星互联网组网的一环,为偏远地区、海上航运等提供低延迟高速通信服务,同时也引发了太空碎片与轨道安全争议。

Basic Information
目录编号:
55582
目录名称:
STARLINK-5741
国际标识:
2023-020P
轨道中心:
EARTH
卫星名称:
星链-5741
卫星全名:
星链-5741 (STARLINK-5741 )
卫星状态:
在轨 (已飞行1173 天)
发射日期:
2023-02-12 UTC
国别 :
美国 (US)
星等 :
--
Orbit Information
数据来源 国际轨道数据 AOE轨道数据
星历时间 2026-04-30T12:00:01+0800
9小时前
查看轨道信息
2026-04-29T17:00:00+0800
1天前
查看轨道信息
半长轴 6861.182km 6861.269km
偏心率 0.0001492 0.0001691
轨道倾角 43.004° 43.005°
近地点辐角 263.737° 238.631°
升交点赤经 63.505° 67.974°
平近点角 45.911° 32.185°
近地点 482.021km 481.971km
远地点 484.069km 484.293km
周期 94.267分钟 94.268分钟
每日圈数 15.275814 15.275526
Detailed Information
固有亮度:
5
最大亮度:
2.5
卫星平台:
Starlink v1.5
覆盖范围:
全球
运营商:
太空探索技术公司
运营商所在国:
美国
制造商(研发单位):
太空探索技术公司
制造商所在国:
美国
使用方式:
暂无
Satellite Introduction
星链(Starlink)计划是由太空探索技术公司(SpaceX)提出的一个巨型低轨卫星互联网星座项目,计划在2019年至2024年间在太空搭建由约1.2万颗卫星组成的“星链”网络,其中1584颗将部署在地球上空550千米处的近地轨道,并从2020年开始工作。该卫星仍在工作。
2D Orbit Map
3D Orbit Map
Orbit Altitude Analysis Chart
Orbit Inclination Analysis Chart
Orbit Comprehensive Analysis Chart
View Comprehensive Chart